Regional Weather Roundup
Issued by NWS

Home | Current Version | Previous Version | Graphics & Text | Print | Product List | Glossary Off
Versions: 1 2 3 4 5 6 7 8 9 10 11 12 13 14 15 16 17 18 19 20 21 22 23 24 25 26 27 28 29 30 31 32 33 34 35 36 37 38 39 40 41 42 43 44 45 46 47 48 49 50

000
ASUS43 KTOP 191308
RWRKS

WEATHER ROUNDUP FOR KANSAS
NATIONAL WEATHER SERVICE GOODLAND KS
700 AM CST SUN NOV 19 2017

NOTE:  "FAIR" INDICATES FEW OR NO CLOUDS BELOW 12,000 FEET WITH NO
SIGNIFICANT WEATHER AND/OR OBSTRUCTIONS TO VISIBILITY.

KSZ001>006-013>018-027>032-041>047-191400-
NORTHWEST KANSAS

CITY           SKY/WX    TMP DP  RH WIND       PRES   REMARKS
GOODLAND       CLOUDY    25  13  60 SW3       30.19F
HAYS           CLEAR     22  18  85 W8        30.26S
HILL CITY      CLEAR     24  19  81 W7        30.23F
RUSSELL        CLEAR     21  19  92 SW8       30.24R
$$

KSZ061>065-074>080-084>089-191400-
SOUTHWEST KANSAS

CITY           SKY/WX    TMP DP  RH WIND       PRES   REMARKS
DODGE CITY     CLOUDY    25  14  63 S6        30.26F
ELKHART        CLOUDY    25  19  77 SW7       30.23R
GARDEN CITY    CLOUDY    26  14  60 CALM      30.24F
GREAT BEND     CLEAR     22  19  89 SW3       30.27S
LIBERAL        CLOUDY    23  15  71 SW9       30.28S
PRATT          CLEAR     26  17  69 W5        30.28R
$$

KSZ066>073-081>083-090>101-191400-
SOUTHEAST KANSAS

CITY           SKY/WX    TMP DP  RH WIND       PRES   REMARKS
CHANUTE        CLEAR     28  24  85 CALM      30.30R
COFFEYVILLE    CLEAR     29  26  89 CALM      30.31R
HUTCHINSON     PTCLDY    25  21  85 W7        30.26S
MEDICINE LODGE   N/A     23  19  85 N5        30.28S
NEWTON         PTCLDY    29  23  78 W5        30.27S
PARSONS        CLEAR     26  25  96 CALM      30.32R
WICHITA INTL   CLEAR     26  23  88 CALM      30.28S
WICHITA JABRA  CLEAR     30  24  78 W3        30.27S
WICHITA MCCONL CLEAR     32  23  69 CALM      30.28R
WINFIELD       PTCLDY    26  23  88 CALM      30.31R
$$

KSZ007>012-019>026-033>040-048>060-102>105-191400-
NORTHEAST KANSAS

CITY           SKY/WX    TMP DP  RH WIND       PRES   REMARKS
CONCORDIA      CLEAR     30  22  72 W3        30.22F
EMPORIA        CLEAR     29  23  78 W5        30.28S
LAWRENCE       CLEAR     23  21  92 W5        30.28S
MANHATTAN      CLEAR     22  20  92 CALM      30.26F
MARYSVILLE     CLEAR     23  21  93 S3        30.23S
OLATHE IND     CLEAR     28  23  81 W5        30.27R
OLATHE EXE     CLEAR     28  23  81 CALM      30.26R
SALINA         PTCLDY    23  19  85 S3        30.27S
TOPEKA BILLARD CLEAR     27  25  92 CALM      30.27F
TOPEKA FORBES  CLEAR     26  22  84 CALM      30.27S
$$



USA.gov is the U.S. government's official web portal to all federal, state and local government web resources and services.